This is the latest recevied weather packets stored in our database for station/object DC1MPP-9. If no packets are shown the sender has not sent any weather packets the latest 10 day(s).
| Time | Temp. | Humidity | Pressure | Rain* | Wind** | Luminosity | Snow |
|---|---|---|---|---|---|---|---|
| 1787825374 | 28.33° C | 73% | 958 hPa | - | - | - | - |
| 1787825133 | 28.33° C | 73% | 958 hPa | - | - | - | - |
| 1787824650 | 28.89° C | 76% | 958 hPa | - | - | - | - |
| 1787824409 | 27.78° C | 80% | 958 hPa | - | - | - | - |
| 1787824168 | 27.78° C | 77% | 958 hPa | - | - | - | - |
| 1787823927 | 27.22° C | 80% | 958 hPa | - | - | - | - |
| 1787823686 | 27.22° C | 82% | 958 hPa | - | - | - | - |
| 1787823204 | 27.22° C | 82% | 958 hPa | - | - | - | - |
| 1787822963 | 27.78° C | 79% | 958 hPa | - | - | - | - |
| 1787822722 | 27.22° C | 83% | 958 hPa | - | - | - | - |
| 1787822481 | 27.22° C | 79% | 958 hPa | - | - | - | - |
| 1787822240 | 26.67° C | 86% | 958 hPa | - | - | - | - |
| 1787821999 | 26.11° C | 84% | 958 hPa | - | - | - | - |
| 1787821758 | 26.11° C | 88% | 958 hPa | - | - | - | - |
| 1787821517 | 25.56° C | 90% | 958 hPa | - | - | - | - |
| 1787821276 | 25.56° C | 92% | 958 hPa | - | - | - | - |
| 1787821034 | 26.11° C | 92% | 958 hPa | - | - | - | - |
| 1787820552 | 25.56° C | 89% | 958 hPa | - | - | - | - |
| 1787820311 | 25° C | 92% | 958 hPa | - | - | - | - |
| 1787820070 | 25° C | 93% | 958 hPa | - | - | - | - |
| 1787819829 | 25° C | 92% | 958 hPa | - | - | - | - |
| 1787819588 | 25.56° C | 90% | 958 hPa | - | - | - | - |
| 1787819106 | 25° C | 92% | 958 hPa | - | - | - | - |
| 1787818865 | 25° C | 97% | 958 hPa | - | - | - | - |
| 1787818142 | 24.44° C | 97% | 958 hPa | - | - | - | - |
* Rain since midnight (hover to see other rain measurements)
** Current wind speed in m/s (hover to see current wind gust speed)